When you browse on this site, cookies collect data to enhance your experience and personalize the content and advertising you see.
Visit our Privacy Policy to learn more. By continuing to use the site, you agree to this use of cookies and data.
  • In Österreich
  • Länderverzeichnis
  • Für 7 Tage
  • Wassertemperatur
  • Wetterkarte
  • News
  • Widgets
  • user-avatar
    Anmelden

    Stündliche Wetter Trujillo

    Heute, 27 Mai, Mittwoch

    Zeit Temperatur Niederschläge Wind Luftdruck Luftfeuchtigkeit
    00:00 +28°C° 0 mm 2 m/S 758 mmHg 81%
    01:00 +28°C° 0 mm 2 m/S 758 mmHg 80%
    02:00 +28°C° 0 mm 1 m/S 758 mmHg 80%
    03:00 +28°C° 0 mm 1 m/S 758 mmHg 79%
    04:00 +28°C° 0 mm 1 m/S 758 mmHg 78%
    05:00 +28°C° 0 mm 1 m/S 758 mmHg 77%
    06:00 +26°C° 0 mm 0 m/S 758 mmHg 76%
    07:00 +31°C° 0 mm 1 m/S 758 mmHg 66%
    08:00 +34°C° 0 mm 1 m/S 759 mmHg 56%
    09:00 +37°C° 0 mm 1 m/S 759 mmHg 46%
    10:00 +37°C° 0 mm 1 m/S 759 mmHg 44%
    11:00 +39°C° 0 mm 2 m/S 758 mmHg 42%
    12:00 +40°C° 0 mm 2 m/S 758 mmHg 39%
    13:00 +39°C° 0.1 mm 3 m/S 758 mmHg 46%
    14:00 +38°C° 0.1 mm 3 m/S 757 mmHg 52%
    15:00 +36°C° 0.1 mm 3 m/S 756 mmHg 58%
    16:00 +35°C° 0 mm 4 m/S 757 mmHg 65%
    17:00 +33°C° 0 mm 4 m/S 757 mmHg 72%
    18:00 +32°C° 0 mm 5 m/S 757 mmHg 79%
    19:00 +30°C° 0.2 mm 5 m/S 758 mmHg 83%
    20:00 +29°C° 0.2 mm 6 m/S 758 mmHg 88%
    21:00 +28°C° 0.2 mm 6 m/S 759 mmHg 92%
    22:00 +28°C° 0 mm 5 m/S 759 mmHg 93%
    23:00 +28°C° 0 mm 5 m/S 759 mmHg 93%

    Morgen, 28 Mai, Donnerstag

    Zeit Temperatur Niederschläge Wind Luftdruck Luftfeuchtigkeit
    00:00 +28°C° 0 mm 4 m/S 759 mmHg 94%
    01:00 +28°C° 0 mm 4 m/S 759 mmHg 94%
    02:00 +27°C° 0 mm 4 m/S 758 mmHg 95%
    03:00 +27°C° 0 mm 4 m/S 758 mmHg 95%
    04:00 +27°C° 0 mm 4 m/S 758 mmHg 94%
    05:00 +27°C° 0 mm 4 m/S 758 mmHg 92%
    06:00 +28°C° 0 mm 4 m/S 759 mmHg 90%
    07:00 +30°C° 0 mm 3 m/S 759 mmHg 77%
    08:00 +34°C° 0 mm 3 m/S 759 mmHg 65%
    09:00 +37°C° 0 mm 3 m/S 759 mmHg 52%
    10:00 +38°C° 0 mm 4 m/S 759 mmHg 47%
    11:00 +40°C° 0 mm 5 m/S 759 mmHg 42%
    12:00 +41°C° 0 mm 6 m/S 758 mmHg 37%
    13:00 +40°C° 0 mm 7 m/S 758 mmHg 45%
    14:00 +38°C° 0 mm 7 m/S 757 mmHg 54%
    15:00 +35°C° 0 mm 7 m/S 757 mmHg 62%
    16:00 +34°C° 0.3 mm 7 m/S 757 mmHg 68%
    17:00 +32°C° 0.3 mm 7 m/S 758 mmHg 74%
    18:00 +30°C° 0.3 mm 7 m/S 758 mmHg 80%
    19:00 +29°C° 0.1 mm 7 m/S 758 mmHg 83%
    20:00 +28°C° 0.1 mm 6 m/S 759 mmHg 87%
    21:00 +28°C° 0.1 mm 6 m/S 759 mmHg 90%
    22:00 +27°C° 0 mm 5 m/S 759 mmHg 91%
    23:00 +27°C° 0 mm 5 m/S 759 mmHg 92%

    übermorgen, 29 Mai, Freitag

    Zeit Temperatur Niederschläge Wind Luftdruck Luftfeuchtigkeit
    00:00 +27°C° 0 mm 5 m/S 759 mmHg 93%
    01:00 +27°C° 0 mm 4 m/S 759 mmHg 93%
    02:00 +26°C° 0 mm 4 m/S 758 mmHg 93%
    03:00 +26°C° 0 mm 4 m/S 758 mmHg 93%
    04:00 +27°C° 0 mm 3 m/S 758 mmHg 91%
    05:00 +27°C° 0 mm 3 m/S 758 mmHg 88%
    06:00 +27°C° 0 mm 3 m/S 759 mmHg 86%
    07:00 +29°C° 0 mm 2 m/S 759 mmHg 75%
    08:00 +31°C° 0 mm 2 m/S 759 mmHg 65%
    09:00 +35°C° 0 mm 2 m/S 759 mmHg 55%
    10:00 +35°C° 0 mm 3 m/S 759 mmHg 52%
    11:00 +36°C° 0 mm 4 m/S 758 mmHg 49%
    12:00 +37°C° 0 mm 5 m/S 758 mmHg 46%
    13:00 +36°C° 0 mm 5 m/S 758 mmHg 51%
    14:00 +35°C° 0 mm 5 m/S 757 mmHg 56%
    15:00 +34°C° 0 mm 5 m/S 756 mmHg 61%
    16:00 +33°C° 0.4 mm 5 m/S 757 mmHg 69%
    17:00 +30°C° 0.4 mm 5 m/S 757 mmHg 77%
    18:00 +29°C° 0.4 mm 6 m/S 757 mmHg 85%
    19:00 +28°C° 0.5 mm 5 m/S 758 mmHg 89%
    20:00 +28°C° 0.5 mm 5 m/S 759 mmHg 92%
    21:00 +27°C° 0.5 mm 5 m/S 759 mmHg 96%
    22:00 +27°C° 0.1 mm 5 m/S 759 mmHg 96%
    23:00 +26°C° 0.1 mm 4 m/S 759 mmHg 97%

    30 Mai, Samstag

    Zeit Temperatur Niederschläge Wind Luftdruck Luftfeuchtigkeit
    00:00 +26°C° 0.1 mm 4 m/S 759 mmHg 98%
    01:00 +26°C° 0 mm 4 m/S 758 mmHg 98%
    02:00 +26°C° 0 mm 3 m/S 758 mmHg 98%
    03:00 +25°C° 0 mm 3 m/S 758 mmHg 98%
    04:00 +26°C° 0 mm 3 m/S 758 mmHg 96%
    05:00 +26°C° 0 mm 3 m/S 758 mmHg 95%
    06:00 +26°C° 0 mm 3 m/S 758 mmHg 93%
    07:00 +29°C° 0 mm 3 m/S 758 mmHg 81%
    08:00 +31°C° 0 mm 3 m/S 758 mmHg 68%
    09:00 +35°C° 0 mm 3 m/S 759 mmHg 56%
    10:00 +37°C° 0.1 mm 4 m/S 758 mmHg 49%
    11:00 +39°C° 0.1 mm 5 m/S 758 mmHg 43%
    12:00 +41°C° 0.1 mm 5 m/S 757 mmHg 37%
    13:00 +37°C° 1 mm 5 m/S 757 mmHg 50%
    14:00 +35°C° 1 mm 5 m/S 757 mmHg 63%
    15:00 +32°C° 1 mm 5 m/S 756 mmHg 76%
    16:00 +30°C° 1.5 mm 5 m/S 757 mmHg 80%
    17:00 +29°C° 1.5 mm 5 m/S 757 mmHg 85%
    18:00 +27°C° 1.5 mm 5 m/S 757 mmHg 89%
    19:00 +27°C° 0.1 mm 4 m/S 758 mmHg 90%
    20:00 +27°C° 0.1 mm 3 m/S 758 mmHg 91%
    21:00 +27°C° 0.1 mm 3 m/S 759 mmHg 91%
    22:00 +27°C° 0 mm 3 m/S 758 mmHg 92%
    23:00 +26°C° 0 mm 3 m/S 758 mmHg 92%

    31 Mai, Sonntag

    Zeit Temperatur Niederschläge Wind Luftdruck Luftfeuchtigkeit
    00:00 +26°C° 0 mm 3 m/S 758 mmHg 92%
    01:00 +26°C° 0 mm 3 m/S 758 mmHg 92%
    02:00 +26°C° 0 mm 3 m/S 757 mmHg 91%
    03:00 +26°C° 0 mm 3 m/S 757 mmHg 91%
    04:00 +26°C° 0 mm 3 m/S 757 mmHg 91%
    05:00 +26°C° 0 mm 3 m/S 758 mmHg 91%
    06:00 +26°C° 0 mm 2 m/S 758 mmHg 91%
    07:00 +26°C° 0.1 mm 2 m/S 758 mmHg 88%
    08:00 +27°C° 0.1 mm 2 m/S 758 mmHg 86%
    09:00 +28°C° 0.1 mm 2 m/S 759 mmHg 84%
    10:00 +30°C° 0 mm 2 m/S 758 mmHg 75%
    11:00 +31°C° 0 mm 2 m/S 758 mmHg 67%
    12:00 +34°C° 0 mm 2 m/S 757 mmHg 58%
    13:00 +34°C° 0 mm 3 m/S 757 mmHg 59%
    14:00 +34°C° 0 mm 4 m/S 756 mmHg 60%
    15:00 +34°C° 0 mm 4 m/S 756 mmHg 61%
    16:00 +32°C° 0.3 mm 5 m/S 756 mmHg 68%
    17:00 +30°C° 0.3 mm 5 m/S 756 mmHg 75%
    18:00 +29°C° 0.3 mm 5 m/S 757 mmHg 83%
    19:00 +28°C° 0.5 mm 5 m/S 757 mmHg 84%
    20:00 +28°C° 0.5 mm 5 m/S 757 mmHg 85%
    21:00 +28°C° 0.5 mm 4 m/S 758 mmHg 86%
    22:00 +28°C° 0.1 mm 4 m/S 758 mmHg 86%
    23:00 +27°C° 0.1 mm 3 m/S 758 mmHg 87%

    1 Juni, Montag

    Zeit Temperatur Niederschläge Wind Luftdruck Luftfeuchtigkeit
    00:00 +27°C° 0.1 mm 3 m/S 757 mmHg 88%
    01:00 +27°C° 0.5 mm 3 m/S 757 mmHg 90%
    02:00 +26°C° 0.5 mm 2 m/S 757 mmHg 92%
    03:00 +26°C° 0.5 mm 2 m/S 757 mmHg 94%
    04:00 +26°C° 0.8 mm 2 m/S 757 mmHg 95%
    05:00 +26°C° 0.8 mm 2 m/S 757 mmHg 95%
    06:00 +26°C° 0.8 mm 2 m/S 757 mmHg 96%
    07:00 +28°C° 0.1 mm 1 m/S 758 mmHg 88%
    08:00 +30°C° 0.1 mm 1 m/S 758 mmHg 80%
    09:00 +32°C° 0.1 mm 1 m/S 758 mmHg 71%
    10:00 +32°C° 0 mm 1 m/S 758 mmHg 68%
    11:00 +34°C° 0 mm 2 m/S 757 mmHg 64%
    12:00 +35°C° 0 mm 3 m/S 757 mmHg 60%
    13:00 +33°C° 2.6 mm 3 m/S 757 mmHg 73%
    14:00 +29°C° 2.6 mm 2 m/S 756 mmHg 85%
    15:00 +27°C° 2.6 mm 2 m/S 756 mmHg 98%
    16:00 +27°C° 0.8 mm 2 m/S 756 mmHg 98%
    17:00 +27°C° 0.8 mm 1 m/S 756 mmHg 98%
    18:00 +27°C° 0.8 mm 1 m/S 757 mmHg 98%
    19:00 +27°C° 0.9 mm 1 m/S 757 mmHg 98%
    20:00 +27°C° 0.9 mm 1 m/S 758 mmHg 98%
    21:00 +27°C° 0.9 mm 2 m/S 758 mmHg 98%
    22:00 +27°C° 0.8 mm 2 m/S 758 mmHg 98%
    23:00 +26°C° 0.8 mm 3 m/S 758 mmHg 98%
    Mehr zeigen